Lumberton, NC

10:23 AM EDT on March 29, 2017 (GMT -0400)
Lumberton Municipal

Weather History for KLBT - November, 2013

Change the Weather History Date:

Tuesday, November 19, 2013

  Actual Average Record
Temperature  
Mean Temperature 53 °F 53 °F  
Max Temperature 62 °F 66 °F 77 °F (2016)
Min Temperature 43 °F 40 °F 15 °F (2014)
Degree Days  
Heating Degree Days 12 12  
Month to date heating degree days 208 184  
Since 1 July heating degree days 312 316  
Cooling Degree Days 0 0  
Month to date cooling degree days 14 10  
Year to date cooling degree days 1861 1904  
Growing Degree Days 2 (Base 50)    
Moisture  
Dew Point 28 °F    
Average Humidity 42    
Maximum Humidity 58    
Minimum Humidity 25    
Precipitation  
Precipitation 0.00 in 0.10 in 1.43 in (2015)
Month to date precipitation 0.61 1.75  
Year to date precipitation 38.34 39.51  
Snow  
Snow 0.00 in - - ()
Month to date snowfall 0.0  
Snow Depth 0.00 in    
Sea Level Pressure  
Sea Level Pressure 30.11 in    
Wind  
Wind Speed 8 mph (NNE)    
Max Wind Speed 17 mph    
Max Gust Speed 23 mph    
Visibility 9 miles    
Events      
T = Trace of Precipitation, MM = Missing Value Source: NWS Daily Summary

Daily Weather History Graph

Daily Weather History Graph

Search for Another Location

Airport or City:

Trip Planner

Search our weather history database for the weather conditions in past years. The results will help you decide how hot, cold, wet, or windy it might be!

Date:

Astronomy

Nov. 19, 2013 Rise Set
Actual Time 6:53 AM EST 5:09 PM EST
Civil Twilight 6:26 AM EST 5:36 PM EST
Nautical Twilight 5:56 AM EST 6:06 PM EST
Astronomical Twilight 5:26 AM EST 6:36 PM EST
Moon 6:59 PM EST (11/19) 8:31 AM EST (11/19)
Length of Visible Light 11h 09m
Length of Day
10h 15m
Waning Gibbous, 96% of the Moon is Illuminated
Nov 19
Waning Gibbous
Nov 25
Last Quarter
Dec 2
New
Dec 9
First Quarter
Dec 17
Full

Hourly Weather History & Observations

Time (EST) Temp. Windchill Dew Point Humidity Pressure Visibility Wind Dir Wind Speed Gust Speed Precip Events Conditions
12:54 AM 55.0 °F - 30.9 °F 40% 29.95 in 10.0 mi North 9.2 mph - N/A   Clear
1:54 AM 54.0 °F - 30.9 °F 41% 29.96 in 10.0 mi North 8.1 mph - N/A   Clear
2:54 AM 52.0 °F - 28.9 °F 41% 29.97 in 10.0 mi North 6.9 mph - N/A   Clear
3:54 AM 50.0 °F - 28.0 °F 43% 30.00 in 10.0 mi North 5.8 mph - N/A   Clear
4:54 AM 46.9 °F - 28.0 °F 48% 30.02 in 10.0 mi NNW 5.8 mph - N/A   Clear
5:54 AM 45.0 °F 41.8 °F 28.9 °F 53% 30.04 in 10.0 mi NNW 5.8 mph - N/A   Clear
6:54 AM 44.1 °F 41.5 °F 28.0 °F 53% 30.07 in 10.0 mi North 4.6 mph - N/A   Clear
7:54 AM 48.0 °F - 28.9 °F 48% 30.09 in 10.0 mi North 9.2 mph - N/A   Clear
8:54 AM 52.0 °F - 28.9 °F 41% 30.12 in 10.0 mi NNE 11.5 mph 19.6 mph N/A   Clear
9:54 AM 55.9 °F - 26.1 °F 32% 30.15 in 10.0 mi NNE 12.7 mph 21.9 mph N/A   Clear
10:54 AM 57.9 °F - 25.0 °F 28% 30.14 in 10.0 mi North 10.4 mph 20.7 mph N/A   Clear
11:54 AM 57.9 °F - 26.1 °F 30% 30.13 in 10.0 mi North 10.4 mph - N/A   Clear
12:35 PM 59.0 °F - 26.1 °F 28% 30.11 in 1.5 mi NNE 9.2 mph - N/A   Haze
12:44 PM 59.0 °F - 26.1 °F 28% 30.11 in 4.0 mi North 9.2 mph - N/A   Haze
12:54 PM 60.1 °F - 25.0 °F 26% 30.11 in 10.0 mi NNE 12.7 mph 16.1 mph N/A   Clear
1:54 PM 61.0 °F - 25.0 °F 25% 30.10 in 10.0 mi NNE 10.4 mph - N/A   Clear
2:54 PM 61.0 °F - 24.1 °F 24% 30.09 in 10.0 mi NNE 11.5 mph - N/A   Clear
3:54 PM 60.1 °F - 24.1 °F 25% 30.11 in 10.0 mi NE 6.9 mph - N/A   Clear
4:54 PM 55.9 °F - 26.1 °F 32% 30.13 in 10.0 mi NE 4.6 mph - N/A   Clear
5:54 PM 51.1 °F - 27.0 °F 39% 30.17 in 10.0 mi NE 5.8 mph - N/A   Clear
6:54 PM 48.9 °F - 28.0 °F 44% 30.18 in 10.0 mi NE 4.6 mph - N/A   Clear
7:54 PM 48.9 °F - 28.9 °F 46% 30.20 in 10.0 mi NE 5.8 mph - N/A   Clear
8:54 PM 46.9 °F - 28.9 °F 50% 30.22 in 10.0 mi ENE 5.8 mph - N/A   Clear
9:54 PM 46.0 °F 43.1 °F 30.0 °F 54% 30.24 in 10.0 mi ENE 5.8 mph - N/A   Clear
10:54 PM 45.0 °F 41.2 °F 30.0 °F 56% 30.26 in 10.0 mi ENE 6.9 mph - N/A   Clear
11:54 PM 45.0 °F 41.2 °F 30.0 °F 56% 30.29 in 10.0 mi ENE 6.9 mph - N/A   Clear